Location: Asheville, NC
(35.6000°N, 82.5500°W)
Time: 00:28:24
(UTC-04:00)

Vanguard 2 - Pass Details

Date: 17 March 2018
Orbit: 554 x 2939 km, 32.9° (Epoch: 24 June)

Event Time Altitude Azimuth Distance (km) Brightness Sun altitude
Rises 17:29:52 0° 284° (WNW) 6,729 13.2 24.9°
Reaches altitude 10° 17:34:47 10° 277° (W) 5,767 13.2 24.0°
Maximum altitude 17:50:06 38° 219° (SW) 3,651 12.1 21.0°
Drops below altitude 10° 18:02:28 10° 157° (SSE) 4,647 11.5 18.6°
Sets 18:05:59 0° 149° (SSE) 5,341 11.7 18.0°
